When you browse on this site, cookies collect data to enhance your experience and personalize the content and advertising you see.
Visit our Privacy Policy to learn more. By continuing to use the site, you agree to this use of cookies and data.

Hourly Weather Ulyanovskiy

Today, 6 July, Monday

Time Temperature Precipitation Wind Pressure Humidity
00:00 +20°C° 0 mm 0 mps 747 mmHg 81%
01:00 +20°C° 0 mm 0 mps 747 mmHg 82%
02:00 +20°C° 0 mm 0 mps 747 mmHg 84%
03:00 +22°C° 0 mm 1 mps 747 mmHg 85%
04:00 +22°C° 0 mm 1 mps 747 mmHg 84%
05:00 +23°C° 0 mm 1 mps 747 mmHg 83%
06:00 +24°C° 0 mm 1 mps 747 mmHg 81%
07:00 +25°C° 0 mm 1 mps 747 mmHg 77%
08:00 +27°C° 0 mm 2 mps 747 mmHg 73%
09:00 +28°C° 0 mm 2 mps 747 mmHg 69%
10:00 +30°C° 0 mm 2 mps 747 mmHg 63%
11:00 +31°C° 0 mm 2 mps 747 mmHg 57%
12:00 +33°C° 0 mm 3 mps 747 mmHg 51%
13:00 +34°C° 0 mm 3 mps 747 mmHg 51%
14:00 +34°C° 0 mm 3 mps 747 mmHg 50%
15:00 +34°C° 0 mm 3 mps 747 mmHg 50%
16:00 +33°C° 0 mm 3 mps 747 mmHg 53%
17:00 +31°C° 0 mm 2 mps 746 mmHg 56%
18:00 +31°C° 0 mm 1 mps 746 mmHg 59%
19:00 +29°C° 0 mm 1 mps 746 mmHg 61%
20:00 +27°C° 0 mm 1 mps 747 mmHg 63%
21:00 +25°C° 0 mm 1 mps 747 mmHg 65%
22:00 +22°C° 0 mm 0 mps 747 mmHg 68%
23:00 +22°C° 0 mm 0 mps 747 mmHg 70%

Tomorrow, 7 July, Tuesday

Time Temperature Precipitation Wind Pressure Humidity
00:00 +21°C° 0 mm 0 mps 747 mmHg 72%
01:00 +21°C° 0 mm 0 mps 747 mmHg 74%
02:00 +20°C° 0 mm 0 mps 747 mmHg 75%
03:00 +20°C° 0 mm 0 mps 747 mmHg 77%
04:00 +21°C° 0 mm 0 mps 748 mmHg 75%
05:00 +22°C° 0 mm 0 mps 748 mmHg 73%
06:00 +25°C° 0 mm 1 mps 748 mmHg 71%
07:00 +27°C° 0 mm 1 mps 748 mmHg 66%
08:00 +28°C° 0 mm 1 mps 748 mmHg 61%
09:00 +29°C° 0 mm 1 mps 748 mmHg 56%
10:00 +30°C° 0 mm 1 mps 748 mmHg 52%
11:00 +31°C° 0 mm 1 mps 748 mmHg 49%
12:00 +32°C° 0 mm 1 mps 748 mmHg 45%
13:00 +33°C° 0 mm 1 mps 748 mmHg 44%
14:00 +33°C° 0 mm 1 mps 748 mmHg 43%
15:00 +34°C° 0 mm 1 mps 748 mmHg 41%
16:00 +33°C° 0 mm 1 mps 748 mmHg 46%
17:00 +33°C° 0 mm 1 mps 747 mmHg 51%
18:00 +32°C° 0 mm 1 mps 747 mmHg 55%
19:00 +30°C° 0 mm 1 mps 747 mmHg 57%
20:00 +28°C° 0 mm 1 mps 748 mmHg 59%
21:00 +26°C° 0 mm 2 mps 748 mmHg 61%
22:00 +26°C° 0 mm 1 mps 748 mmHg 63%
23:00 +25°C° 0 mm 1 mps 748 mmHg 64%

Day after tomorrow, 8 July, Wednesday

Time Temperature Precipitation Wind Pressure Humidity
00:00 +24°C° 0 mm 1 mps 748 mmHg 66%
01:00 +24°C° 0 mm 1 mps 748 mmHg 68%
02:00 +23°C° 0 mm 1 mps 748 mmHg 70%
03:00 +23°C° 0 mm 1 mps 748 mmHg 72%
04:00 +24°C° 0 mm 1 mps 748 mmHg 71%
05:00 +25°C° 0 mm 1 mps 748 mmHg 71%
06:00 +26°C° 0 mm 1 mps 748 mmHg 70%
07:00 +27°C° 0 mm 2 mps 748 mmHg 66%
08:00 +29°C° 0 mm 2 mps 749 mmHg 62%
09:00 +30°C° 0 mm 2 mps 749 mmHg 57%
10:00 +31°C° 0 mm 3 mps 749 mmHg 54%
11:00 +33°C° 0 mm 3 mps 749 mmHg 51%
12:00 +34°C° 0 mm 3 mps 749 mmHg 47%
13:00 +35°C° 0 mm 3 mps 749 mmHg 47%
14:00 +35°C° 0 mm 3 mps 748 mmHg 46%
15:00 +35°C° 0 mm 3 mps 748 mmHg 45%
16:00 +34°C° 0 mm 2 mps 748 mmHg 50%
17:00 +32°C° 0 mm 2 mps 748 mmHg 55%
18:00 +32°C° 0 mm 2 mps 748 mmHg 59%
19:00 +30°C° 0 mm 2 mps 748 mmHg 62%
20:00 +28°C° 0 mm 3 mps 748 mmHg 64%
21:00 +27°C° 0 mm 3 mps 748 mmHg 67%
22:00 +26°C° 0 mm 3 mps 748 mmHg 69%
23:00 +25°C° 0 mm 3 mps 748 mmHg 71%

9 July, Thursday

Time Temperature Precipitation Wind Pressure Humidity
00:00 +24°C° 0 mm 3 mps 748 mmHg 73%
01:00 +24°C° 0 mm 3 mps 748 mmHg 73%
02:00 +23°C° 0 mm 2 mps 748 mmHg 74%
03:00 +23°C° 0 mm 2 mps 748 mmHg 74%
04:00 +24°C° 0 mm 3 mps 748 mmHg 74%
05:00 +24°C° 0 mm 3 mps 748 mmHg 74%
06:00 +25°C° 0 mm 4 mps 748 mmHg 74%
07:00 +26°C° 0 mm 4 mps 748 mmHg 70%
08:00 +28°C° 0 mm 4 mps 748 mmHg 67%
09:00 +29°C° 0 mm 4 mps 748 mmHg 63%
10:00 +30°C° 0 mm 5 mps 748 mmHg 58%
11:00 +32°C° 0 mm 5 mps 748 mmHg 54%
12:00 +33°C° 0 mm 5 mps 748 mmHg 49%
13:00 +34°C° 0 mm 6 mps 747 mmHg 47%
14:00 +34°C° 0 mm 6 mps 747 mmHg 46%
15:00 +34°C° 0 mm 6 mps 747 mmHg 45%
16:00 +33°C° 0 mm 6 mps 746 mmHg 49%
17:00 +32°C° 0 mm 5 mps 746 mmHg 53%
18:00 +30°C° 0 mm 5 mps 745 mmHg 58%
19:00 +29°C° 0 mm 6 mps 745 mmHg 56%
20:00 +29°C° 0 mm 6 mps 745 mmHg 55%
21:00 +29°C° 0 mm 7 mps 745 mmHg 54%
22:00 +28°C° 0 mm 6 mps 745 mmHg 54%
23:00 +28°C° 0 mm 5 mps 745 mmHg 54%

10 July, Friday

Time Temperature Precipitation Wind Pressure Humidity
00:00 +27°C° 0 mm 5 mps 745 mmHg 54%
01:00 +26°C° 0 mm 5 mps 745 mmHg 56%
02:00 +26°C° 0 mm 5 mps 745 mmHg 58%
03:00 +24°C° 0 mm 6 mps 745 mmHg 59%
04:00 +25°C° 0.1 mm 5 mps 745 mmHg 63%
05:00 +23°C° 0.1 mm 5 mps 745 mmHg 68%
06:00 +23°C° 0.1 mm 4 mps 745 mmHg 72%
07:00 +25°C° 0 mm 4 mps 745 mmHg 70%
08:00 +25°C° 0 mm 3 mps 745 mmHg 69%
09:00 +26°C° 0 mm 3 mps 746 mmHg 67%
10:00 +26°C° 0 mm 3 mps 746 mmHg 67%
11:00 +27°C° 0 mm 2 mps 746 mmHg 67%
12:00 +27°C° 0 mm 2 mps 747 mmHg 67%
13:00 +26°C° 0.1 mm 3 mps 747 mmHg 71%
14:00 +25°C° 0.1 mm 5 mps 747 mmHg 75%
15:00 +23°C° 0.1 mm 6 mps 747 mmHg 79%
16:00 +23°C° 0.5 mm 6 mps 747 mmHg 80%
17:00 +22°C° 0.5 mm 6 mps 748 mmHg 82%
18:00 +21°C° 0.5 mm 6 mps 748 mmHg 83%
19:00 +20°C° 0.1 mm 6 mps 749 mmHg 82%
20:00 +19°C° 0.1 mm 5 mps 749 mmHg 82%
21:00 +17°C° 0.1 mm 5 mps 750 mmHg 82%
22:00 +16°C° 0.1 mm 6 mps 750 mmHg 79%
23:00 +16°C° 0.1 mm 6 mps 750 mmHg 77%

11 July, Saturday

Time Temperature Precipitation Wind Pressure Humidity
00:00 +15°C° 0.1 mm 6 mps 751 mmHg 75%
01:00 +15°C° 0 mm 7 mps 751 mmHg 73%
02:00 +15°C° 0 mm 7 mps 751 mmHg 72%
03:00 +14°C° 0 mm 7 mps 752 mmHg 71%
04:00 +15°C° 0 mm 7 mps 752 mmHg 71%
05:00 +15°C° 0 mm 7 mps 752 mmHg 70%
06:00 +15°C° 0 mm 7 mps 752 mmHg 70%
07:00 +17°C° 0 mm 8 mps 752 mmHg 67%
08:00 +18°C° 0 mm 8 mps 752 mmHg 64%
09:00 +20°C° 0 mm 8 mps 752 mmHg 62%
10:00 +21°C° 0 mm 8 mps 752 mmHg 60%
11:00 +21°C° 0 mm 8 mps 752 mmHg 58%
12:00 +22°C° 0 mm 7 mps 752 mmHg 56%
13:00 +23°C° 0 mm 7 mps 752 mmHg 56%
14:00 +23°C° 0 mm 7 mps 752 mmHg 57%
15:00 +23°C° 0 mm 7 mps 752 mmHg 57%
16:00 +22°C° 0 mm 7 mps 752 mmHg 60%
17:00 +22°C° 0 mm 6 mps 752 mmHg 64%
18:00 +21°C° 0 mm 5 mps 752 mmHg 67%
19:00 +20°C° 0 mm 5 mps 752 mmHg 70%
20:00 +19°C° 0 mm 5 mps 751 mmHg 72%
21:00 +17°C° 0 mm 5 mps 751 mmHg 74%
22:00 +17°C° 0 mm 5 mps 751 mmHg 76%
23:00 +17°C° 0 mm 5 mps 751 mmHg 79%
Show more